Regional Weather Roundup
Issued by NWS Newport/Morehead, NC

Current Version | Previous Version | Graphics & Text | Print | Product List | Glossary On
Versions: 1 2 3 4 5 6 7 8 9 10 11 12 13 14 15 16 17 18 19 20 21 22 23 24 25 26 27 28 29 30 31 32 33 34 35 36 37 38 39 40 41 42 43 44 45 46 47 48 49 50
000 ASUS42 KMHX 290724 RWRMHX WEATHER ROUNDUP FOR EASTERN NORTH CAROLINA NATIONAL WEATHER SERVICE NEWPORT/MOREHEAD CITY NC 300 AM EDT SUN MAR 29 2015 NOTE: "FAIR" INDICATES FEW OR NO CLOUDS BELOW 12,000 FEET WITH NO SIGNIFICANT WEATHER AND/OR OBSTRUCTIONS TO VISIBILITY NCZ015>017-031-032-045>047-102-103-290800- NORTH COAST CITY SKY/WX TMP DP RH WIND PRES REMARKS EDENTON CLEAR 29 17 61 CALM 30.29S ELIZABETH CITY CLEAR 30 15 53 NW9 30.27F KITTY HAWK SUNNY 32 8 36 NW12G22 30.25S MANTEO CLEAR 33 11 41 N15G23 30.26F $$ NCZ045>047-081-094-103-104-290800- CENTRAL COAST CITY SKY/WX TMP DP RH WIND PRES REMARKS FRISCO CLEAR 34 16 47 N10G18 30.25S SWANQUARTER N/A 28 N/A N/A NW2 30.24S $$ NCZ095-097-098-100-101-290800- SOUTHERN COAST CITY SKY/WX TMP DP RH WIND PRES REMARKS BEAUFORT CLEAR 34 21 59 N10 30.27R CEDAR ISLAND N/A 37 N/A N/A NW15G28 30.30S JACKSONVILLE CLEAR 33 19 56 N9 30.29R PINEY ISLAND SUNNY N/A N/A N/A N16 30.27R WILMINGTON CLEAR 35 17 47 N10 30.29R $$ NCZ011>013-027>030-043-044-078>080-089-090>093-098-290800- COASTAL PLAIN CITY SKY/WX TMP DP RH WIND PRES REMARKS AHOSKIE CLEAR 26 16 65 CALM 30.31R CLINTON CLEAR 33 17 51 N3 30.31S ELIZABETHTOWN CLEAR 33 19 56 CALM 30.30S GOLDSBORO CLEAR 31 22 68 N6 30.29R GREENVILLE CLEAR 30 19 64 CALM 30.32R HAVELOCK CLEAR 34 19 54 N14 30.29S KENANSVILLE CLEAR 32 17 52 N5 30.31S KINSTON CLEAR 29 21 71 N5 30.31S NEW BERN CLEAR 33 16 49 N10 30.30S RICHLANDS CLEAR 30 18 59 CALM 30.30S ROCKY MOUNT CLEAR 29 15 56 N6 30.31S WASHINGTON CLEAR 29 15 55 CALM 30.30S WHITEVILLE CLEAR 36 16 45 N3 30.30R $$ AMZ130-135-150-152-154-156-158-170-250-252-270-ANZ085-086-088-633-658-670-290800- MARINE OBSERVATIONS STATION/POSITION TIME TEMP WIND PRES WAVE SWELL AIR SEA DIR/SP/G HT/PER HT/PER (UTC) (F) (DEG/KT/KT) (MB) (FT/S) (FT/S) CHESAPEAKE LIGHT 0700 33 330/ 23/ 26 1024.4 64 E VA BEACH 0650 36 55 320/ 17/ 25 1022.4 6/ 6 2/10 DUCK NOT AVBL 2 E DUCK 0611 42 N/A 5/ 6 10 NE DUCK NOT AVBL OREGON INLET NOT AVBL HATTERAS CG NOT AVBL CAPE LOOKOUT 0700 37 360/ 20/ 24 1024.3 BEAUFORT LAB NOT AVBL 27 SE WRIGHTSVLE 0700 41 65 20/ 21/ 25 1024.6 5 SE WRIGHTSVLE 0700 40 56 10/ 25/ 29 1024.8 225 S CAPE HAT 0650 56 68 290/ 6/ 8 1020.5 10/ 8 10/ 8 41 SE CHARLESTON 0650 54 68 10/ 12/ 16 1022.8 4/ 5 2/ 9 $$

USA.gov is the U.S. government's official web portal to all federal, state and local government web resources and services.